EW4115 Weather Reports


time (UTC)temp
C
wind
direction
speed
KPH
gust
KPH
rain 1hr
cm
rain 24hr
cm
rain mn
cm
humidity
%
barometer
mb
20260508043040 17 46 0.0 0.0 0.00 0.00 0.00 68 1016.4
20260508041538 17 46 0.0 1.6 0.00 0.00 0.00 68 1016.1
20260508040045 17 46 0.0 0.0 0.00 0.00 0.00 68 1015.9
20260508034535 17 46 0.0 0.0 0.00 0.00 0.00 67 1015.7
20260508033034 17 46 0.0 0.0 0.00 0.00 0.00 68 1015.6
20260508031536 17 46 0.0 1.6 0.00 0.00 0.00 67 1015.7
20260508030033 17 46 0.0 1.6 0.00 0.00 0.00 67 1015.5
20260508024545 17 46 0.0 1.6 0.00 0.00 0.00 69 1015.7
20260508023032 17 46 0.0 0.0 0.00 0.00 0.00 68 1015.9
20260508021530 17 46 0.0 1.6 0.00 0.00 0.00 68 1015.7
20260508020029 17 46 0.0 1.6 0.00 0.00 0.00 68 1015.9
20260508014529 17 46 0.0 0.0 0.00 0.00 0.00 69 1015.9
20260508013024 17 46 0.0 1.6 0.00 0.00 0.00 68 1016.1
20260508011523 18 46 0.0 0.0 0.00 0.00 0.00 67 1016.3
20260508010031 18 46 0.0 0.0 0.00 0.00 0.00 67 1016.4
20260508004520 18 46 0.0 1.6 0.00 0.00 0.00 66 1016.6
20260508003019 18 46 0.0 0.0 0.00 0.00 0.00 65 1016.4
20260508001518 18 46 0.0 1.6 0.00 0.00 0.00 64 1016.6
20260508000015 18 46 0.0 1.6 0.00 0.00 0.00 62 1016.6
20260507234518 18 46 0.0 1.6 0.00 0.00 0.00 62 1016.8
20260507233032 18 46 0.0 0.0 0.00 0.00 0.00 61 1017.2
20260507231511 18 46 0.0 0.0 0.00 0.00 0.00 59 1017.1
20260507230009 18 46 0.0 0.0 0.00 0.00 0.00 58 1017.2
20260507224508 18 46 0.0 1.6 0.00 0.00 0.00 57 1017.4
20260507223006 18 47 0.0 1.6 0.00 0.00 0.00 56 1017.4
20260507221510 18 47 0.0 0.0 0.00 0.00 0.00 55 1017.5
20260507220003 18 47 0.0 0.0 0.00 0.00 0.00 55 1017.6
20260507214608 18 47 0.0 1.6 0.00 0.00 0.00 54 1017.9
20260507213201 18 47 0.0 1.6 0.00 0.00 0.00 54 1017.9
20260507211610 18 47 0.0 1.6 0.00 0.00 0.00 53 1018.0
20260507204557 19 47 0.0 0.0 0.00 0.00 0.00 53 1017.9
20260507203106 19 47 0.0 1.6 0.00 0.00 0.00 52 1017.9
20260507201559 19 47 0.0 1.6 0.00 0.00 0.00 50 1017.9
20260507200107 19 47 0.0 1.6 0.00 0.00 0.00 50 1017.8
20260507194552 19 47 0.0 1.6 0.00 0.00 0.00 49 1017.8
20260507193051 19 47 0.0 1.6 0.00 0.00 0.00 49 1017.7
20260507191550 19 47 0.0 1.6 0.00 0.00 0.00 48 1017.6
20260507190057 20 45 0.0 1.6 0.00 0.00 0.00 49 1017.7
20260507184556 20 45 0.0 1.6 0.00 0.00 0.00 50 1017.7
20260507183050 20 45 0.0 1.6 0.00 0.00 0.00 50 1017.5
20260507181547 20 45 0.0 1.6 0.00 0.00 0.00 50 1017.5
20260507180050 20 45 0.0 3.2 0.00 0.00 0.00 50 1017.5
20260507174549 20 45 0.0 1.6 0.00 0.00 0.00 51 1017.3
20260507173045 21 46 0.0 1.6 0.00 0.00 0.00 49 1017.4
20260507171544 21 46 0.0 6.4 0.00 0.00 0.00 47 1017.4
20260507170044 22 58 0.0 8.0 0.00 0.00 0.00 45 1017.0
20260507164556 22 75 0.0 8.0 0.00 0.00 0.00 39 1016.6
20260507163043 23 236 0.0 3.2 0.00 0.00 0.00 31 1016.7
20260507161543 23 236 0.0 4.8 0.00 0.00 0.00 31 1016.8
20260507160043 23 235 1.6 8.0 0.00 0.00 0.00 31 1016.8
20260507154550 24 204 0.0 8.0 0.00 0.00 0.00 30 1016.9
20260507153041 24 242 1.6 12.9 0.00 0.00 0.00 29 1017.2
20260507151541 25 146 0.0 9.7 0.00 0.00 0.00 29 1017.3
20260507150040 25 111 1.6 16.1 0.00 0.00 0.00 30 1017.2
20260507144539 25 235 1.6 11.3 0.00 0.00 0.00 30 1017.2
20260507143038 25 237 1.6 12.9 0.00 0.00 0.00 28 1017.1
20260507141542 25 248 3.2 14.5 0.00 0.00 0.00 29 1017.1
20260507140037 26 287 4.8 16.1 0.00 0.00 0.00 27 1016.7
20260507134539 26 292 3.2 12.9 0.00 0.00 0.00 26 1016.7
20260507133050 26 231 1.6 12.9 0.00 0.00 0.00 27 1016.5
20260507131545 26 256 1.6 11.3 0.00 0.00 0.00 30 1016.6
20260507130047 25 299 3.2 12.9 0.00 0.00 0.00 30 1016.8
20260507124534 25 89 0.0 8.0 0.00 0.00 0.00 32 1017.1
20260507123034 26 245 3.2 9.7 0.00 0.00 0.00 34 1017.1
20260507121533 27 250 1.6 9.7 0.00 0.00 0.00 30 1017.2
20260507120039 27 73 1.6 12.9 0.00 0.00 0.00 31 1017.2
20260507114554 27 150 3.2 14.5 0.00 0.00 0.00 28 1017.3
20260507113031 27 241 1.6 12.9 0.00 0.00 0.00 31 1017.4
20260507111531 26 263 1.6 14.5 0.00 0.00 0.00 32 1017.4
20260507110025 26 252 4.8 16.1 0.00 0.00 0.00 44 1017.2
20260507104523 26 266 3.2 19.3 0.00 0.00 0.00 47 1017.3
20260507103112 25 241 1.6 19.3 0.00 0.00 0.00 49 1016.9
20260507101531 25 258 4.8 16.1 0.00 0.00 0.00 50 1016.9
20260507100123 25 150 4.8 14.5 0.00 0.00 0.00 46 1017.0
20260507094539 25 249 1.6 12.9 0.00 0.00 0.00 46 1017.1
20260507093132 25 218 4.8 11.3 0.00 0.00 0.00 46 1017.0
20260507091552 25 241 3.2 16.1 0.00 0.00 0.00 44 1017.0
20260507090020 25 235 1.6 12.9 0.00 0.00 0.00 43 1016.8
20260507084604 25 234 1.6 8.0 0.00 0.00 0.00 43 1017.0
20260507083024 25 243 0.0 8.0 0.00 0.00 0.00 44 1017.0
20260507081616 25 256 1.6 11.3 0.00 0.00 0.00 43 1016.9
20260507080037 25 263 3.2 14.5 0.00 0.00 0.00 43 1016.9
20260507074626 25 217 0.0 3.2 0.00 0.00 0.00 43 1016.9
20260507073052 25 91 3.2 4.8 0.00 0.00 0.00 41 1016.6
20260507071510 25 228 0.0 4.8 0.00 0.00 0.00 44 1016.8
20260507070105 24 227 0.0 6.4 0.00 0.00 0.00 45 1016.9
20260507064523 23 232 1.6 4.8 0.00 0.00 0.00 46 1016.9
20260507063112 23 241 0.0 6.4 0.00 0.00 0.00 47 1016.8
20260507061528 23 247 0.0 3.2 0.00 0.00 0.00 48 1016.7
20260507060114 22 247 0.0 3.2 0.00 0.00 0.00 51 1016.6
20260507054537 21 247 0.0 1.6 0.00 0.00 0.00 54 1016.4
20260507053130 20 247 0.0 0.0 0.00 0.00 0.00 59 1016.2
20260507051533 19 247 0.0 1.6 0.00 0.00 0.00 61 1016.1
20260507050029 17 247 0.0 0.0 0.00 0.00 0.00 65 1016.2
20260507044523 16 247 0.0 1.6 0.00 0.00 0.00 70 1016.1